Regional Weather Roundup
Issued by NWS Northern Indiana

Home | Current Version | Previous Version | Text Only | Print | Product List | Glossary On
Versions: 1 2 3 4 5 6 7 8 9 10 11 12 13 14 15 16 17 18 19 20 21 22 23 24 25 26 27 28 29 30 31 32 33 34 35 36 37 38 39 40 41 42 43 44 45 46 47 48 49 50
000
ASUS43 KIWX 260010
RWRIWX

KIWX WEATHER ROUNDUP
NATIONAL WEATHER SERVICE NORTHERN INDIANA
800 PM EDT SUN JUN 25 2017

NOTE: "FAIR" INDICATES FEW OR NO CLOUDS BELOW 12,000 FEET WITH NO
SIGNIFICANT WEATHER AND/OR OBSTRUCTIONS TO VISIBILITY.

* THESE STATIONS ARE NOT UNDER NWS QUALITY CONTROL. THEY ALSO MAY NOT
  REPORT WEATHER SUCH AS PRECIPITATION OR FOG.

INZ001>027-260100-
NORTHERN INDIANA

CITY           SKY/WX    TMP DP  RH WIND       PRES   REMARKS
GARY*          PTSUNNY   70  43  37 W14G29    30.09R
VALPARAISO     CLOUDY    70  47  43 W14G23    30.09R
6HR MIN TEMP:  70; 6HR MAX TEMP:  75;

MICHIGAN CITY* PTSUNNY   68  46  45 W5        30.08R
LAPORTE*       CLOUDY    68  46  46 W3        30.09R
6HR MIN TEMP:  68; 6HR MAX TEMP:  72;

KNOX*          CLOUDY    68  34  28 W12G18    30.08R
SOUTH BEND     PTSUNNY   67  46  47 NW9       30.07R
6HR MIN TEMP:  67; 6HR MAX TEMP:  71;

GOSHEN         PTSUNNY   68  43  40 W12       30.07R
6HR MIN TEMP:  67; 6HR MAX TEMP:  72;

MONTICELLO*    MOSUNNY   70  45  39 W13G18    30.10R
6HR MIN TEMP:  70; 6HR MAX TEMP:  74;

LOGANSPORT*    CLOUDY    68  46  45 W9        30.11R
ROCHESTER*     MOSUNNY   70  43  37 W9        30.09S
WARSAW*        PTSUNNY   68  43  40 W12       30.08R
AUBURN*        MOSUNNY   68  43  40 W7        30.08R
FORT WAYNE     MOSUNNY   70  43  37 W15       30.08R
6HR MIN TEMP:  68; 6HR MAX TEMP:  73;

HUNTINGTON*    CLOUDY    68  42  39 W6        30.09R
6HR MIN TEMP:  67; 6HR MAX TEMP:  71;

PERU/GRISSOM   PTSUNNY   69  47  46 W10       30.08R
6HR MIN TEMP:  69; 6HR MAX TEMP:  73;

MARION*        PTSUNNY   68  45  42 W13       30.11R

$$
INZ028>050-260100-
CENTRAL INDIANA

CITY           SKY/WX    TMP DP  RH WIND       PRES   REMARKS
LAFAYETTE      SUNNY     69  47  45 W14G22    30.10R
6HR MIN TEMP:  68; 6HR MAX TEMP:  73;

KOKOMO*        PTSUNNY   69  48  47 W12       30.11R
6HR MIN TEMP:  69; 6HR MAX TEMP:  72;

MUNCIE*        PTSUNNY   71  48  43 W8        30.10R
6HR MIN TEMP:  69; 6HR MAX TEMP:  73;

INDIANAPOLIS   MOSUNNY   72  44  36 W14       30.11R
6HR MIN TEMP:  71; 6HR MAX TEMP:  76;


$$
MIZ043>046-050>051-056>058-064>065-071>073-077>080-260100-
SOUTHWEST LOWER MICHIGAN

CITY           SKY/WX    TMP DP  RH WIND       PRES   REMARKS
BATTLE CREEK   SUNNY     66  45  46 W12       30.06R
6HR MIN TEMP:  66; 6HR MAX TEMP:  72;

BENTON HARBOR  MOSUNNY   68  46  45 W10       30.06S
6HR MIN TEMP:  68; 6HR MAX TEMP:  72;

COLDWATER*     MOSUNNY   67  39  36 W9        30.06R
6HR MIN TEMP:  67; 6HR MAX TEMP:  72;

HILLSDALE*     SUNNY     64  41  42 W9        30.05S
HOLLAND        SUNNY     67  51  56 W10       30.05S
6HR MIN TEMP:  67; 6HR MAX TEMP:  70;

GRAND RAPIDS   PTSUNNY   66  49  54 W16       30.03S
6HR MIN TEMP:  65; 6HR MAX TEMP:  69;

KALAMAZOO      MOSUNNY   68  42  38 W12       30.06R
6HR MIN TEMP:  67; 6HR MAX TEMP:  72;

STURGIS*       PTSUNNY   67  46  47 W9        30.06R
6HR MIN TEMP:  67; 6HR MAX TEMP:  71;

THREE RIVERS*  FAIR      68  44  42 W13       30.07R
6HR MIN TEMP:  67; 6HR MAX TEMP:  71;


$$
OHZ001>008-015>018-024>025-260100-
NORTHWEST OHIO

CITY           SKY/WX    TMP DP  RH WIND       PRES   REMARKS
WAUSEON*       FAIR      70  41  35 NW10G23   30.05R
DEFIANCE       CLOUDY    67  44  43 VRB6      30.06S
6HR MIN TEMP:  66; 6HR MAX TEMP:  71;

FINDLAY        MOSUNNY   69  44  40 W12       30.06R
6HR MIN TEMP:  69; 6HR MAX TEMP:  74;

TOLEDO EXPRESS SUNNY     68  42  38 W10G21    30.04R
6HR MIN TEMP:  68; 6HR MAX TEMP:  73;

TOLEDO METCALF MOSUNNY   71  44  37 W12       30.05R
6HR MIN TEMP:  69; 6HR MAX TEMP:  75;

LIMA           MOSUNNY   69  44  40 W15       30.08R
6HR MIN TEMP:  68; 6HR MAX TEMP:  72;


$$
AND FOR LAKE MICHIGAN COASTAL AND OPEN LAKE BUOY OBSERVATIONS

STATION/POSITION TEMP    WIND        PRES    VSBY  WAVE
                 AIR SEA DIR/SP/G                  HT/PER
                 (F)     (DEG/KT/KT) (MB)    (MI)  (FT/S)
CALUMET HARBOR    70     260/  6/ 13 1017.9R
MICHIGAN CITY     67     250/ 13/ 15   N/A
BURNS HARBOR      68     270/ 15/ 17 1018.6R
SOUTH LAKE BUOY   64 62  300/  8/ 10 1017.4R         1/ 4
4 MI NW BRIDGMAN  67 69  280/  6/ 10 1018.1          2/ 4
MICHIGAN CITY     67 67  270/ 14/ 17   N/A           2/ 3

$$
&&



USA.gov is the U.S. government's official web portal to all federal, state and local government web resources and services.